This demonstration page uses our WeatherBlox Daily Observations layout. Learn more.

Left ArrowRight Arrow

34.02893, -84.19858

Hourly Observations for February 17, 2017

Temp ( °F °C ) Dew Point ( °F °C ) Humidity (%) Winds ( mph kmh ) Pressure ( in mb ) Visibility ( mi km ) Precip ( " mm )
12:53 am 00:53 Clear 38 3.3 24 -4.4 57 57 Calm 30.03 1017 10 16 0.00 0.00
1:53 am 01:53 Clear 40 4.4 25 -3.9 55 55 SW 5 7 30.03 1017 10 16 0.00 0.00
2:53 am 02:53 Clear 43 6.1 23 -5 45 45 W 5 7 30.03 1017 10 16 0.00 0.00
3:53 am 03:53 Clear 42 5.6 23 -5 47 47 WNW 5 7 30.01 1016 10 16 0.00 0.00
4:53 am 04:53 Clear 36 2.2 25 -3.9 64 64 Calm 30.04 1017 10 16 0.00 0.00
5:53 am 05:53 Clear 36 2.2 26 -3.3 67 67 W 3 6 30.05 1018 10 16 0.00 0.00
6:53 am 06:53 Clear 40 4.4 24 -4.4 53 53 W 6 9 30.05 1018 10 16 0.00 0.00
7:53 am 07:53 Sunny 37 2.8 27 -2.8 67 67 SW 6 9 30.08 1019 10 16 0.00 0.00
8:53 am 08:53 Sunny 47 8.3 27 -2.8 46 46 W 3 6 30.08 1019 10 16 0.00 0.00
9:53 am 09:53 Sunny 53 11.7 27 -2.8 37 37 W 7 11 30.08 1019 10 16 0.00 0.00
10:53 am 10:53 Sunny 60 15.6 29 -1.7 31 31 WNW 9 15 30.09 1019 10 16 0.00 0.00
11:53 am 11:53 Sunny 62 16.7 26 -3.3 25 25 WNW 9 15 30.06 1018 10 16 0.00 0.00
12:53 pm 12:53 Sunny 63 17.2 26 -3.3 25 25 W 8 13 30.04 1017 10 16 0.00 0.00
1:53 pm 13:53 Sunny 66 18.9 26 -3.3 22 22 W 12 19 30.02 1017 10 16 0.00 0.00
2:53 pm 14:53 Sunny 68 20 26 -3.3 21 21 WSW 10 17 29.98 1015 10 16 0.00 0.00
3:53 pm 15:53 Sunny 69 20.6 24 -4.4 18 18 W 10 17 29.97 1015 10 16 0.00 0.00
4:53 pm 16:53 Sunny 67 19.4 25 -3.9 20 20 SW 10 17 29.98 1015 10 16 0.00 0.00
5:53 pm 17:53 Sunny 65 18.3 26 -3.3 23 23 SW 10 17 29.98 1015 10 16 0.00 0.00
6:53 pm 18:53 Clear 61 16.1 27 -2.8 27 27 WSW 3 6 29.98 1015 10 16 0.00 0.00
7:53 pm 19:53 Clear 58 14.4 28 -2.2 32 32 SSW 3 6 29.99 1016 10 16 0.00 0.00
8:53 pm 20:53 Clear 56 13.3 32 0 40 40 SW 6 9 29.99 1016 10 16 0.00 0.00
9:53 pm 21:53 Clear 56 13.3 30 -1.1 37 37 Calm 29.98 1015 10 16 0.00 0.00
10:53 pm 22:53 Clear 56 13.3 28 -2.2 34 34 SW 6 9 29.99 1016 10 16 0.00 0.00
11:53 pm 23:53 Clear 55 12.8 28 -2.2 35 35 Calm 29.99 1016 10 16 0.00 0.00

Powered by AerisWeather